Regional Weather Roundup
Issued by NWS

Home | Current Version | Previous Version | Text Only | Print | Product List | Glossary On
Versions: 1 2 3 4 5 6 7 8 9 10 11 12 13 14 15 16 17 18 19 20 21 22 23 24 25 26 27 28 29 30 31 32 33 34 35 36 37 38 39 40 41 42 43 44 45 46 47 48 49 50
292
ASUS44 KJAN 310610
RWRMS

MISSISSIPPI HOURLY WEATHER ROUNDUP
NATIONAL WEATHER SERVICE JACKSON MS
100 AM CDT TUE MAY 31 2016

NOTE: "FAIR: INDICATES FEW OR NO CLOUDS BELOW 12,000 FEET WITH NO
SIGNIFICANT WEATHER AND/OR OBSTRUCTIONS TO VISIBILITY.

MSZ001>002-007>008-010>013-018>021-025>028-034>036-310700-
NORTHWEST MISSISSIPPI

CITY           SKY/WX    TMP DP  RH WIND       PRES   REMARKS
BATESVILLE     FAIR      71  64  78 CALM      29.96F
CLARKSDALE     PTCLDY    70  70 100 N6        29.95S
CLEVELAND      FAIR      70  70 100 N7        29.93F
GREENWOOD      CLOUDY    74  65  73 S7        29.95R
6HR MIN TEMP:  74; 6HR MAX TEMP:  82;

GREENVILLE     CLOUDY    72  66  83 S15G22    29.96R
6HR MIN TEMP:  70; 6HR MAX TEMP:  76; 6HR PCP: TRACE;

OLIVE BRANCH   CLEAR     72  70  94 W9        29.98S
OXFORD         FAIR      73  64  73 NW5       29.98S
TUNICA         CLOUDY    68  63  83 N3        29.97S
WINONA         FAIR      74  67  79 CALM      29.94S
$$

MSZ003>006-009-014>017-022>024-029>033-037>039-310700-
NORTHEAST MISSISSIPPI

CITY           SKY/WX    TMP DP  RH WIND       PRES   REMARKS
COLUMBUS AFB   NOT AVBL
CORINTH        FAIR      66  64  94 CALM      29.95F
GOLDN TRIANGLE CLOUDY    73  64  73 NW3       29.93S
STARKVILLE     FAIR      70  66  88 CALM      29.93F
TUPELO         MOCLDY    73  63  70 NW5       29.94F
6HR MIN TEMP:  72; 6HR MAX TEMP:  87;

$$

MSZ040-058-310700-
CENTRAL MISSISSIPPI

CITY           SKY/WX    TMP DP  RH WIND       PRES   REMARKS
JACKSON INTL   CLEAR     70  67  90 SE3       29.95S
6HR MIN TEMP:  70; 6HR MAX TEMP:  86; 6HR PCP: TRACE;

JACKSON HAWKNS CLEAR     72  65  78 CALM      29.95S
6HR MIN TEMP:  72; 6HR MAX TEMP:  87;

MADISON        FAIR      68  64  88 CALM      29.95R
MERIDIAN KEY   CLOUDY    73  67  81 SW3       29.94F
6HR MIN TEMP:  73; 6HR MAX TEMP:  90;

MERIDIAN NAS   MOCLDY    72  66  81 NW5       29.94F
6HR MIN TEMP:  71; 6HR MAX TEMP:  86;

VICKSBURG TVR  CLEAR     72  68  87 CALM      29.94F
6HR MIN TEMP:  72; 6HR MAX TEMP:  83;

VICKSBURG VKS  CLEAR     70  68  94 CALM      29.95F
$$

MSZ059>079-310700-
SOUTH MISSISSIPPI

CITY           SKY/WX    TMP DP  RH WIND       PRES   REMARKS
BROOKHAVEN     FAIR     N/A N/A N/A CALM      29.97S
COLUMBIA       FAIR      70  70 100 CALM      29.99S
HATTIESBURG    CLOUDY    75  70  84 CALM      29.94F
6HR MIN TEMP:  75; 6HR MAX TEMP:  83; 6HR PCP:  0.01;

MCCOMB         CLEAR     67  65  93 CALM      29.96S
6HR MIN TEMP:  67; 6HR MAX TEMP:  71;

NATCHEZ        CLEAR     70  64  83 CALM      29.94F
6HR MIN TEMP:  70; 6HR MAX TEMP:  75;

PINE BELT      CLOUDY    73  64  73 CALM      29.96S
6HR MIN TEMP:  73; 6HR MAX TEMP:  84;

$$

MSZ080>082-310700-
COASTAL MISSISSIPPI

CITY           SKY/WX    TMP DP  RH WIND       PRES   REMARKS
BILOXI         NOT AVBL
PASCAGOULA     PTCLDY    69  68  96 CALM      29.94F
6HR MIN TEMP:  69; 6HR MAX TEMP:  75;

GULFPORT       PTCLDY    76  73  91 CALM      29.93F
6HR MIN TEMP:  75; 6HR MAX TEMP:  78;

$$




USA.gov is the U.S. government's official web portal to all federal, state and local government web resources and services.